This is the latest recevied weather packets stored in our database for station/object R2AKT-13. If no packets are shown the sender has not sent any weather packets the latest 10 day(s).
| Time | Temp. | Humidity | Pressure | Rain* | Wind** | Luminosity | Snow |
|---|---|---|---|---|---|---|---|
| 1788447116 | 18.33° C | 62% | 989 hPa | - | 0.45 m/s, 214° | - | - |
| 1788446521 | 18.33° C | 64% | 989 hPa | - | 0.45 m/s, 249° | - | - |
| 1788445979 | 17.78° C | 65% | 989.1 hPa | - | 0.45 m/s, 251° | - | - |
| 1788445381 | 17.78° C | 66% | 989.1 hPa | - | 0 m/s | - | - |
| 1788444876 | 18.33° C | 63% | 989.1 hPa | - | 0.45 m/s, 239° | - | - |
| 1788444321 | 19.44° C | 60% | 989 hPa | - | 0 m/s | - | - |
| 1788443821 | 18.33° C | 63% | 989 hPa | - | 0 m/s | - | - |
| 1788443285 | 18.33° C | 64% | 989.2 hPa | - | 0.89 m/s, 191° | - | - |
| 1788442691 | 17.78° C | 65% | 989.2 hPa | - | 0.45 m/s, 253° | - | - |
| 1788442126 | 18.89° C | 63% | 989 hPa | - | 0.45 m/s, 267° | - | - |
| 1788441621 | 18.33° C | 65% | 989.2 hPa | - | 0.45 m/s, 282° | - | - |
| 1788441057 | 17.78° C | 67% | 989.2 hPa | - | 0.45 m/s, 227° | - | - |
| 1788440516 | 17.78° C | 66% | 989.3 hPa | - | 0.89 m/s, 155° | - | - |
| 1788439991 | 18.33° C | 65% | 989.3 hPa | - | 0.45 m/s, 268° | - | - |
| 1788439425 | 17.78° C | 67% | 989.4 hPa | - | 0.45 m/s, 180° | - | - |
| 1788438831 | 17.22° C | 68% | 989.4 hPa | - | 0.45 m/s, 194° | - | - |
| 1788438281 | 17.22° C | 70% | 989.5 hPa | - | 0.45 m/s, 140° | - | - |
| 1788437731 | 16.67° C | 73% | 989.6 hPa | - | 0.45 m/s, 237° | - | - |
| 1788437216 | 16.11° C | 75% | 989.7 hPa | - | 0 m/s | - | - |
| 1788436656 | 16.67° C | 74% | 989.7 hPa | - | 0 m/s | - | - |
| 1788436081 | 16.67° C | 75% | 989.7 hPa | - | 0 m/s | - | - |
| 1788435581 | 16.67° C | 73% | 989.8 hPa | - | 0.45 m/s, 273° | - | - |
| 1788435051 | 16.67° C | 73% | 989.8 hPa | - | 0.45 m/s, 191° | - | - |
| 1788434456 | 16.11° C | 75% | 989.8 hPa | - | 0.45 m/s, 214° | - | - |
| 1788433916 | 16.11° C | 77% | 989.9 hPa | - | 0.45 m/s, 256° | - | - |
* Rain since midnight (hover to see other rain measurements)
** Current wind speed in m/s (hover to see current wind gust speed)